{"data":{"norad_id":59333,"epoch":"2026-09-21T03:59:09.636000Z","epoch_age_seconds":104726,"freshness":"FRESH","line1":"1 59333U 24057P   26264.16608375  .00000546  00000+0  29356-4 0  9990","line2":"2 59333  43.0009 174.4563 0001093 267.6020  92.4707 15.27579581139605","mean_motion":15.27579581,"eccentricity":0.0001093,"inclination_deg":43.0009,"raan_deg":174.4563,"arg_perigee_deg":267.602,"mean_anomaly_deg":92.4707,"bstar":2.9356e-5,"rev_number":13960,"period_min":94.26677457009,"perigee_km":482.30042289925,"apogee_km":483.8002784541,"semimajor_km":6861.1873506767,"source":"CELESTRAK","updated_at":"2026-09-22T09:00:48.900542Z"}}